ラーゲルクヴィスト彗星

P/1996 R2 ( Lagerkvist ) 2004

English version
Home page
Updated on November 12, 2004

---------------------------------------------------------------------

・ プロフィール

・ 軌道要素

Epoch 2004 June 4.0 TT = JDT 2453160.5  
T 2004 June 7.78609 TT                                  Muraoka 
q   2.6229745            (2000.0)            P               Q
n   0.13341101     Peri.  334.26072     +0.96792487     -0.24952315
a   3.7932221      Node    40.22407     +0.23764005     +0.87140041
e   0.3085102      Incl.    2.60223     +0.08153925     +0.42237367
P   7.39
From 122 observations 1996 Sept. 11-1997 Jan. 12, mean residual 0".66.
dP = +/- 0.28 day

・ 星図

・ 光度変化

        m1 = 12.5 + 5 logΔ + 15.0 log r

        ※ 灰色の曲線は、m1 = 9.0 + 5 logΔ + 15.0 log r の光度曲線です。

---------------------------------------------------------------------

軌道要素は村岡健治氏の計算によるものです。
星図は StellaNavigator Ver.2.0 for Windows (アストロアーツ 編著 / アスキー出版局刊) で作成したものです。
光度グラフはComet for Windowsで作成したものです。

---------------------------------------------------------------------

Copyright(C) Seiichi Yoshida (comet@aerith.net). All rights reserved.